Weather History for KCPR - November, 2013

Change the Weather History Date:

Sunday, November 10, 2013

  Actual Average Record
Temperature  
Mean Temperature 43 °F 36 °F  
Max Temperature 64 °F 48 °F 70 °F (2005)
Min Temperature 21 °F 24 °F -14 °F (1986)
Degree Days  
Heating Degree Days 22 29  
Month to date heating degree days 289 271  
Since 1 July heating degree days 1178 1170  
Cooling Degree Days 0 0  
Month to date cooling degree days 0 0  
Year to date cooling degree days 618 422  
Moisture  
Dew Point 25 °F    
Average Humidity 53    
Maximum Humidity 84    
Minimum Humidity 22    
Precipitation  
Precipitation 0.00 in 0.02 in 0.35 in (2014)
Month to date precipitation 0.01 0.29  
Year to date precipitation 13.71 11.56  
Snow  
Snow 0.00 in 0.40 in - ()
Month to date snowfall 0.1 3.2  
Since 1 July snowfall 21.3 12.4  
Since 1 September snowfall 21.3 12.4  
Snow Depth 0.00 in    
Sea Level Pressure  
Sea Level Pressure 30.16 in    
Wind  
Wind Speed 11 mph (SW)    
Max Wind Speed 21 mph    
Max Gust Speed 61 mph    
Visibility 10 miles    
Events      
T = Trace of Precipitation, MM = Missing Value Source: NWS Daily Summary

Daily Weather History Graph

Daily Weather History Graph

Search for Another Location

Airport or City:

Trip Planner

Search our weather history database for the weather conditions in past years. The results will help you decide how hot, cold, wet, or windy it might be!

Date:

Astronomy

Nov. 10, 2013 Rise Set
Actual Time 6:52 AM MST 4:47 PM MST
Civil Twilight 6:21 AM MST 5:17 PM MST
Nautical Twilight 5:47 AM MST 5:51 PM MST
Astronomical Twilight 5:14 AM MST 6:24 PM MST
Moon 1:03 PM MST (11/10) No Moon Set
Length of Visible Light 10h 55m
Length of Day
9h 55m
First Quarter, 56% of the Moon is Illuminated
Nov 10
First Quarter
Nov 17
Full
Nov 25
Last Quarter
Dec 2
New
Dec 9
First Quarter

Hourly Weather History & Observations

Time (MST) Temp. Windchill Dew Point Humidity Pressure Visibility Wind Dir Wind Speed Gust Speed Precip Events Conditions
12:53 AM 28.0 °F 22.8 °F 23.0 °F 81% 30.21 in 10.0 mi WSW 4.6 mph - N/A   Clear
1:53 AM 27.0 °F 19.5 °F 21.9 °F 81% 30.19 in 10.0 mi SW 6.9 mph - N/A   Clear
2:53 AM 28.0 °F 18.1 °F 23.0 °F 81% 30.19 in 10.0 mi WSW 11.5 mph - N/A   Clear
3:53 AM 32.0 °F 23.6 °F 24.1 °F 73% 30.19 in 10.0 mi SW 10.4 mph - N/A   Clear
4:53 AM 37.0 °F 29.3 °F 25.0 °F 62% 30.20 in 10.0 mi SW 11.5 mph - N/A   Clear
5:53 AM 33.1 °F 23.9 °F 24.1 °F 70% 30.22 in 10.0 mi WSW 12.7 mph - N/A   Clear
6:53 AM 36.0 °F 29.6 °F 24.1 °F 62% 30.21 in 10.0 mi WSW 8.1 mph - N/A   Clear
7:53 AM 37.9 °F 30.0 °F 25.0 °F 60% 30.24 in 10.0 mi SW 12.7 mph - N/A   Clear
8:53 AM 46.9 °F - 26.1 °F 44% 30.22 in 10.0 mi SSW 15.0 mph 23.0 mph N/A   Clear
9:53 AM 51.1 °F - 26.1 °F 38% 30.22 in 10.0 mi SW 19.6 mph - N/A   Clear
10:53 AM 55.0 °F - 26.1 °F 33% 30.21 in 10.0 mi SSW 16.1 mph - N/A   Clear
11:53 AM 57.9 °F - 27.0 °F 31% 30.17 in 10.0 mi SW 17.3 mph - N/A   Clear
12:53 PM 61.0 °F - 27.0 °F 27% 30.12 in 10.0 mi SSW 17.3 mph - N/A   Clear
1:53 PM 63.0 °F - 26.1 °F 25% 30.11 in 10.0 mi SW 12.7 mph - N/A   Clear
2:53 PM 64.0 °F - 25.0 °F 23% 30.09 in 10.0 mi West 10.4 mph - N/A   Clear
3:53 PM 61.0 °F - 27.0 °F 27% 30.08 in 10.0 mi WNW 10.4 mph - N/A   Partly Cloudy
4:53 PM 48.9 °F - 27.0 °F 43% 30.12 in 10.0 mi SSW 6.9 mph - N/A   Clear
5:53 PM 46.0 °F 43.1 °F 26.1 °F 46% 30.16 in 10.0 mi WSW 5.8 mph - N/A   Clear
6:53 PM 39.9 °F 35.8 °F 26.1 °F 58% 30.18 in 10.0 mi WSW 5.8 mph - N/A   Clear
7:53 PM 39.9 °F 36.7 °F 24.1 °F 53% 30.17 in 10.0 mi SW 4.6 mph - N/A   Clear
8:53 PM 44.1 °F 38.6 °F 25.0 °F 47% 30.12 in 10.0 mi SW 10.4 mph - N/A   Clear
9:53 PM 41.0 °F 34.7 °F 25.0 °F 53% 30.12 in 10.0 mi WSW 10.4 mph - N/A   Clear
10:53 PM 45.0 °F 39.7 °F 25.0 °F 46% 30.09 in 10.0 mi WSW 10.4 mph - N/A   Clear
11:53 PM 45.0 °F 39.7 °F 25.0 °F 46% 30.08 in 10.0 mi WSW 10.4 mph - N/A   Clear